| time (UTC) | temp F | wind direction | speed knots | gust knots | rain 1hr in | rain 24hr in | rain mn in | humidity % | barometer mb |
| 20260903085058 | 76 | 187 | 0.9 | 3.5 | 0.00 | 0.00 | 0.00 | 73 | 1013.8 |
| 20260903084557 | 76 | 213 | 0.9 | 3.5 | 0.00 | 0.00 | 0.00 | 73 | 1013.8 |
| 20260903084058 | 76 | 186 | 0.9 | 2.6 | 0.00 | 0.00 | 0.00 | 73 | 1013.8 |
| 20260903083559 | 76 | 218 | 0.9 | 3.5 | 0.00 | 0.00 | 0.00 | 73 | 1013.7 |
| 20260903083057 | 76 | 186 | 0.9 | 3.5 | 0.00 | 0.00 | 0.00 | 74 | 1013.7 |
| 20260903082815 | 76 | 212 | 0.9 | 3.5 | 0.00 | 0.00 | 0.00 | 73 | 1013.7 |
| 20260903082058 | 76 | 0 | 0.9 | 3.5 | 0.00 | 0.00 | 0.00 | 74 | 1013.7 |
| 20260903081559 | 76 | 221 | 0.9 | 3.5 | 0.00 | 0.00 | 0.00 | 74 | 1013.7 |
| 20260903081329 | 76 | 162 | 0.9 | 3.5 | 0.00 | 0.00 | 0.00 | 74 | 1013.7 |
| 20260903080816 | 76 | 165 | 0.9 | 2.6 | 0.00 | 0.00 | 0.00 | 74 | 1013.7 |
| 20260903080318 | 75 | 262 | 0.9 | 1.7 | 0.00 | 0.00 | 0.00 | 75 | 1013.7 |
| 20260903075552 | 75 | 236 | 0.9 | 1.7 | 0.00 | 0.00 | 0.00 | 75 | 1013.7 |
| 20260903075053 | 75 | 164 | 0.9 | 1.7 | 0.00 | 0.00 | 0.00 | 75 | 1013.9 |
| 20260903074551 | 75 | 324 | 0.0 | 1.7 | 0.00 | 0.00 | 0.00 | 76 | 1014.0 |
| 20260903074053 | 75 | 219 | 0.0 | 1.7 | 0.00 | 0.00 | 0.00 | 76 | 1014.1 |
| 20260903073824 | 75 | 0 | 0.9 | 2.6 | 0.00 | 0.00 | 0.00 | 76 | 1014.2 |
| 20260903073052 | 76 | 223 | 0.9 | 2.6 | 0.00 | 0.00 | 0.00 | 75 | 1014.3 |
| 20260903072809 | 76 | 213 | 0.9 | 2.6 | 0.00 | 0.00 | 0.00 | 75 | 1014.1 |
| 20260903072050 | 75 | 198 | 0.9 | 2.6 | 0.00 | 0.00 | 0.00 | 75 | 1014.0 |
| 20260903071550 | 75 | 186 | 0.9 | 1.7 | 0.00 | 0.00 | 0.00 | 75 | 1014.0 |
| 20260903071051 | 75 | 193 | 0.0 | 1.7 | 0.00 | 0.00 | 0.00 | 76 | 1014.0 |
| 20260903070810 | 75 | 157 | 0.0 | 1.7 | 0.00 | 0.00 | 0.00 | 76 | 1014.0 |
| 20260903070048 | 75 | 0 | 0.0 | 0.9 | 0.00 | 0.00 | 0.00 | 76 | 1014.0 |
| 20260903065550 | 76 | 0 | 0.0 | 0.9 | 0.00 | 0.00 | 0.00 | 76 | 1014.2 |
| 20260903065051 | 76 | 230 | 0.9 | 1.7 | 0.00 | 0.00 | 0.00 | 76 | 1014.4 |
| 20260903064810 | 76 | 0 | 0.9 | 1.7 | 0.00 | 0.00 | 0.00 | 75 | 1014.5 |
| 20260903064052 | 76 | 0 | 0.0 | 1.7 | 0.00 | 0.00 | 0.00 | 74 | 1014.6 |
| 20260903063549 | 76 | 252 | 0.0 | 0.9 | 0.00 | 0.00 | 0.00 | 74 | 1014.5 |
| 20260903063049 | 76 | 256 | 0.0 | 1.7 | 0.00 | 0.00 | 0.00 | 74 | 1014.7 |
| 20260903062820 | 77 | 257 | 0.0 | 1.7 | 0.00 | 0.00 | 0.00 | 74 | 1014.8 |
| 20260903062047 | 77 | 263 | 0.0 | 1.7 | 0.00 | 0.00 | 0.00 | 73 | 1014.8 |
| 20260903061544 | 77 | 193 | 0.0 | 1.7 | 0.00 | 0.00 | 0.00 | 73 | 1014.8 |
| 20260903061308 | 78 | 3 | 0.9 | 2.6 | 0.00 | 0.00 | 0.00 | 72 | 1015.1 |
| 20260903060544 | 78 | 107 | 0.9 | 2.6 | 0.00 | 0.00 | 0.00 | 72 | 1015.2 |
| 20260903060044 | 78 | 327 | 0.9 | 2.6 | 0.00 | 0.00 | 0.00 | 71 | 1015.3 |
| 20260903055545 | 79 | 52 | 0.9 | 3.5 | 0.00 | 0.00 | 0.00 | 70 | 1015.2 |
| 20260903055306 | 79 | 319 | 0.9 | 3.5 | 0.00 | 0.00 | 0.00 | 69 | 1015.1 |
| 20260903054545 | 80 | 40 | 1.7 | 3.5 | 0.00 | 0.00 | 0.00 | 69 | 1015.2 |
| 20260903054300 | 81 | 312 | 1.7 | 5.2 | 0.00 | 0.00 | 0.00 | 71 | 1015.3 |
| 20260903053805 | 81 | 334 | 0.9 | 5.2 | 0.00 | 0.00 | 0.00 | 75 | 1015.4 |
| 20260903053042 | 81 | 17 | 0.0 | 0.9 | 0.00 | 0.00 | 0.00 | 76 | 1014.6 |
| 20260903052542 | 81 | 164 | 0.0 | 3.5 | 0.00 | 0.00 | 0.00 | 76 | 1014.1 |
| 20260903052041 | 81 | 0 | 0.9 | 3.5 | 0.00 | 0.00 | 0.00 | 75 | 1014.0 |
| 20260903051805 | 81 | 50 | 0.0 | 2.6 | 0.00 | 0.00 | 0.00 | 75 | 1014.0 |
| 20260903051040 | 82 | 0 | 0.0 | 1.7 | 0.00 | 0.00 | 0.00 | 75 | 1014.0 |
| 20260903050538 | 82 | 0 | 0.0 | 1.7 | 0.00 | 0.00 | 0.00 | 74 | 1013.8 |
| 20260903050038 | 82 | 64 | 0.9 | 1.7 | 0.00 | 0.00 | 0.00 | 74 | 1013.8 |
| 20260903045540 | 82 | 222 | 0.9 | 3.5 | 0.00 | 0.00 | 0.00 | 73 | 1013.6 |
| 20260903045040 | 82 | 77 | 0.9 | 3.5 | 0.00 | 0.00 | 0.00 | 73 | 1013.5 |
| 20260903044536 | 82 | 35 | 0.9 | 3.5 | 0.00 | 0.00 | 0.00 | 72 | 1013.4 |
| 20260903044257 | 82 | 182 | 0.9 | 2.6 | 0.00 | 0.00 | 0.00 | 72 | 1013.4 |
| 20260903043537 | 83 | 43 | 0.9 | 2.6 | 0.00 | 0.00 | 0.00 | 72 | 1013.4 |
| 20260903043038 | 83 | 224 | 0.9 | 2.6 | 0.00 | 0.00 | 0.00 | 72 | 1013.3 |
| 20260903042536 | 83 | 229 | 0.9 | 2.6 | 0.00 | 0.00 | 0.00 | 71 | 1013.2 |
| 20260903042037 | 83 | 115 | 0.9 | 2.6 | 0.00 | 0.00 | 0.00 | 71 | 1013.2 |
| 20260903041802 | 83 | 224 | 0.9 | 3.5 | 0.00 | 0.00 | 0.00 | 71 | 1013.1 |
| 20260903041038 | 83 | 88 | 0.9 | 3.5 | 0.00 | 0.00 | 0.00 | 71 | 1013.0 |
| 20260903040536 | 83 | 87 | 0.9 | 5.2 | 0.00 | 0.00 | 0.00 | 70 | 1013.0 |
| 20260903040036 | 83 | 336 | 0.9 | 5.2 | 0.00 | 0.00 | 0.00 | 70 | 1012.9 |
| 20260903035536 | 83 | 88 | 0.9 | 4.3 | 0.00 | 0.00 | 0.00 | 70 | 1012.9 |
| 20260903035038 | 83 | 177 | 0.9 | 5.2 | 0.00 | 0.00 | 0.00 | 70 | 1012.8 |
| 20260903034537 | 83 | 63 | 0.9 | 5.2 | 0.00 | 0.00 | 0.00 | 70 | 1012.9 |
| 20260903034037 | 83 | 138 | 0.9 | 3.5 | 0.00 | 0.00 | 0.00 | 69 | 1012.7 |
| 20260903033537 | 84 | 358 | 0.9 | 3.5 | 0.00 | 0.00 | 0.00 | 69 | 1012.6 |
| 20260903033308 | 84 | 134 | 0.9 | 4.3 | 0.00 | 0.00 | 0.00 | 68 | 1012.5 |
| 20260903032759 | 84 | 189 | 0.9 | 4.3 | 0.00 | 0.00 | 0.00 | 68 | 1012.4 |
| 20260903032034 | 84 | 204 | 0.9 | 3.5 | 0.00 | 0.00 | 0.00 | 68 | 1012.4 |
| 20260903031754 | 84 | 241 | 0.9 | 4.3 | 0.00 | 0.00 | 0.00 | 68 | 1012.4 |
| 20260903031035 | 84 | 0 | 0.9 | 4.3 | 0.00 | 0.00 | 0.00 | 67 | 1012.6 |
| 20260903030535 | 84 | 182 | 0.9 | 3.5 | 0.00 | 0.00 | 0.00 | 68 | 1012.8 |
| 20260903030031 | 84 | 150 | 0.9 | 2.6 | 0.00 | 0.00 | 0.00 | 67 | 1012.9 |
| 20260903025532 | 84 | 203 | 0.9 | 3.5 | 0.00 | 0.00 | 0.00 | 68 | 1013.0 |
| 20260903025032 | 84 | 0 | 0.9 | 3.5 | 0.00 | 0.00 | 0.00 | 68 | 1013.1 |
| 20260903024533 | 84 | 83 | 0.9 | 3.5 | 0.00 | 0.00 | 0.00 | 68 | 1013.2 |
| 20260903024250 | 84 | 197 | 0.9 | 3.5 | 0.00 | 0.00 | 0.00 | 68 | 1013.3 |
| 20260903023527 | 84 | 0 | 0.9 | 3.5 | 0.00 | 0.00 | 0.00 | 68 | 1013.5 |
| 20260903023025 | 84 | 0 | 0.9 | 2.6 | 0.00 | 0.00 | 0.00 | 67 | 1013.5 |
| 20260903022525 | 84 | 232 | 0.9 | 2.6 | 0.00 | 0.00 | 0.00 | 67 | 1013.5 |
| 20260903022027 | 84 | 243 | 0.9 | 2.6 | 0.00 | 0.00 | 0.00 | 68 | 1013.5 |
| 20260903021528 | 84 | 122 | 0.9 | 2.6 | 0.00 | 0.00 | 0.00 | 68 | 1013.5 |
| 20260903021023 | 84 | 245 | 0.9 | 3.5 | 0.00 | 0.00 | 0.00 | 68 | 1013.6 |
| 20260903020527 | 84 | 102 | 0.9 | 3.5 | 0.00 | 0.00 | 0.00 | 69 | 1013.5 |
| 20260903020021 | 84 | 0 | 0.9 | 2.6 | 0.00 | 0.00 | 0.00 | 69 | 1013.5 |
| 20260903015521 | 84 | 204 | 0.9 | 2.6 | 0.00 | 0.00 | 0.00 | 69 | 1013.6 |
| 20260903015242 | 84 | 166 | 0.9 | 2.6 | 0.00 | 0.00 | 0.00 | 69 | 1013.6 |
| 20260903014522 | 84 | 167 | 0.9 | 1.7 | 0.00 | 0.00 | 0.00 | 69 | 1013.6 |
| 20260903014021 | 84 | 231 | 0.9 | 1.7 | 0.00 | 0.00 | 0.00 | 69 | 1013.6 |
| 20260903013522 | 85 | 236 | 0.9 | 1.7 | 0.00 | 0.00 | 0.00 | 68 | 1013.6 |
| 20260903013016 | 85 | 155 | 0.9 | 1.7 | 0.00 | 0.00 | 0.00 | 68 | 1013.6 |
| 20260903012519 | 85 | 210 | 0.9 | 2.6 | 0.00 | 0.00 | 0.00 | 68 | 1013.7 |
| 20260903012016 | 85 | 0 | 0.9 | 2.6 | 0.00 | 0.00 | 0.00 | 67 | 1013.7 |
| 20260903011517 | 85 | 0 | 0.9 | 2.6 | 0.00 | 0.00 | 0.00 | 67 | 1013.7 |
| 20260903011500 | 85 | 108 | 0.9 | 2.6 | 0.00 | 0.00 | 0.00 | 67 | 1013.7 |
| 20260903010519 | 85 | 194 | 0.9 | 1.7 | 0.00 | 0.00 | 0.00 | 67 | 1013.7 |
| 20260903010019 | 85 | 220 | 0.0 | 1.7 | 0.00 | 0.00 | 0.00 | 66 | 1013.6 |
| 20260903005518 | 85 | 209 | 0.0 | 1.7 | 0.00 | 0.00 | 0.00 | 66 | 1013.6 |
| 20260903005020 | 85 | 0 | 0.0 | 2.6 | 0.00 | 0.00 | 0.00 | 66 | 1013.5 |
| 20260903004517 | 85 | 0 | 0.0 | 2.6 | 0.00 | 0.00 | 0.00 | 66 | 1013.5 |
| 20260903004239 | 86 | 0 | 0.0 | 1.7 | 0.00 | 0.00 | 0.00 | 66 | 1013.5 |
| 20260903003517 | 86 | 0 | 0.0 | 1.7 | 0.00 | 0.00 | 0.00 | 65 | 1013.5 |
| 20260903003017 | 86 | 0 | 0.0 | 1.7 | 0.00 | 0.00 | 0.00 | 65 | 1013.4 |
| 20260903002517 | 86 | 131 | 0.0 | 1.7 | 0.00 | 0.00 | 0.00 | 65 | 1013.3 |
| 20260903002016 | 86 | 0 | 0.0 | 2.6 | 0.00 | 0.00 | 0.00 | 65 | 1013.3 |
| 20260903001514 | 86 | 0 | 0.9 | 2.6 | 0.00 | 0.00 | 0.00 | 64 | 1013.3 |
| 20260903001012 | 87 | 236 | 0.0 | 1.7 | 0.00 | 0.00 | 0.00 | 64 | 1013.4 |
| 20260903000512 | 87 | 0 | 0.0 | 1.7 | 0.00 | 0.00 | 0.00 | 64 | 1013.3 |
| 20260903000228 | 87 | 57 | 0.0 | 1.7 | 0.00 | 0.00 | 0.00 | 64 | 1013.3 |
| 20260902235512 | 87 | 0 | 0.0 | 1.7 | 0.00 | 0.00 | 0.00 | 63 | 1013.3 |
| 20260902235011 | 88 | 0 | 0.0 | 2.6 | 0.00 | 0.00 | 0.00 | 62 | 1013.3 |
| 20260902234512 | 88 | 72 | 0.9 | 2.6 | 0.00 | 0.00 | 0.00 | 62 | 1013.3 |
| 20260902234014 | 88 | 31 | 0.9 | 3.5 | 0.00 | 0.00 | 0.00 | 61 | 1013.3 |
| 20260902233513 | 89 | 99 | 0.9 | 3.5 | 0.00 | 0.00 | 0.00 | 61 | 1013.2 |
| 20260902233013 | 89 | 17 | 0.9 | 3.5 | 0.00 | 0.00 | 0.00 | 60 | 1013.2 |
| 20260902232512 | 89 | 160 | 0.9 | 2.6 | 0.00 | 0.00 | 0.00 | 60 | 1013.2 |
| 20260902232231 | 89 | 110 | 0.9 | 4.3 | 0.00 | 0.00 | 0.00 | 59 | 1013.3 |
| 20260902231512 | 89 | 179 | 0.9 | 4.3 | 0.00 | 0.00 | 0.00 | 59 | 1013.3 |
| 20260902231007 | 89 | 67 | 0.9 | 3.5 | 0.00 | 0.00 | 0.00 | 59 | 1013.3 |
| 20260902230508 | 89 | 332 | 0.9 | 2.6 | 0.00 | 0.00 | 0.00 | 58 | 1013.2 |
| 20260902230235 | 90 | 67 | 0.9 | 3.5 | 0.00 | 0.00 | 0.00 | 59 | 1013.3 |
| 20260902225508 | 90 | 0 | 0.9 | 3.5 | 0.00 | 0.00 | 0.00 | 58 | 1013.2 |
| 20260902225007 | 90 | 0 | 0.9 | 3.5 | 0.00 | 0.00 | 0.00 | 57 | 1013.2 |
| 20260902224506 | 90 | 167 | 0.9 | 3.5 | 0.00 | 0.00 | 0.00 | 56 | 1013.3 |
| 20260902224005 | 90 | 68 | 1.7 | 4.3 | 0.00 | 0.00 | 0.00 | 57 | 1013.2 |
| 20260902223505 | 90 | 71 | 0.9 | 4.3 | 0.00 | 0.00 | 0.00 | 56 | 1013.2 |
| 20260902223005 | 90 | 0 | 0.9 | 3.5 | 0.00 | 0.00 | 0.00 | 57 | 1013.2 |
| 20260902222503 | 90 | 59 | 0.9 | 3.5 | 0.00 | 0.00 | 0.00 | 57 | 1013.2 |
| 20260902222005 | 91 | 57 | 0.9 | 3.5 | 0.00 | 0.00 | 0.00 | 57 | 1013.2 |
| 20260902221504 | 91 | 183 | 0.9 | 5.2 | 0.00 | 0.00 | 0.00 | 57 | 1013.1 |
| 20260902221005 | 91 | 70 | 0.9 | 5.2 | 0.00 | 0.00 | 0.00 | 55 | 1013.0 |
| 20260902220725 | 91 | 327 | 0.9 | 7.8 | 0.00 | 0.00 | 0.00 | 56 | 1013.0 |
| 20260902220006 | 91 | 219 | 0.9 | 7.8 | 0.00 | 0.00 | 0.00 | 55 | 1013.0 |
| 20260902215501 | 92 | 45 | 0.9 | 7.8 | 0.00 | 0.00 | 0.00 | 55 | 1013.0 |
| 20260902215002 | 92 | 0 | 0.9 | 3.5 | 0.00 | 0.00 | 0.00 | 54 | 1013.1 |
| 20260902214459 | 92 | 97 | 0.9 | 3.5 | 0.00 | 0.00 | 0.00 | 53 | 1013.1 |
| 20260902213956 | 92 | 251 | 0.9 | 4.3 | 0.00 | 0.00 | 0.00 | 52 | 1013.1 |
| 20260902213456 | 92 | 356 | 0.9 | 4.3 | 0.00 | 0.00 | 0.00 | 52 | 1013.2 |
| 20260902212957 | 92 | 353 | 0.9 | 3.5 | 0.00 | 0.00 | 0.00 | 54 | 1013.2 |
| 20260902212454 | 92 | 347 | 1.7 | 4.3 | 0.00 | 0.00 | 0.00 | 52 | 1013.2 |
| 20260902211954 | 93 | 158 | 1.7 | 5.2 | 0.00 | 0.00 | 0.00 | 51 | 1013.3 |
| 20260902211713 | 93 | 124 | 1.7 | 5.2 | 0.00 | 0.00 | 0.00 | 52 | 1013.3 |
| 20260902211218 | 94 | 65 | 0.9 | 4.3 | 0.00 | 0.00 | 0.00 | 52 | 1013.3 |
| 20260902210454 | 94 | 55 | 1.7 | 6.1 | 0.00 | 0.00 | 0.00 | 52 | 1013.3 |
| 20260902205954 | 94 | 169 | 1.7 | 6.1 | 0.00 | 0.00 | 0.00 | 51 | 1013.4 |
| 20260902205454 | 93 | 312 | 0.9 | 4.3 | 0.00 | 0.00 | 0.00 | 52 | 1013.4 |
| 20260902204952 | 94 | 333 | 0.9 | 5.2 | 0.00 | 0.00 | 0.00 | 50 | 1013.5 |
| 20260902204454 | 94 | 20 | 0.9 | 5.2 | 0.00 | 0.00 | 0.00 | 49 | 1013.5 |
| 20260902203953 | 94 | 61 | 0.9 | 4.3 | 0.00 | 0.00 | 0.00 | 50 | 1013.7 |
| 20260902203451 | 95 | 64 | 0.9 | 3.5 | 0.00 | 0.00 | 0.00 | 48 | 1013.7 |
| 20260902202950 | 95 | 54 | 1.7 | 5.2 | 0.00 | 0.00 | 0.00 | 49 | 1013.8 |
| 20260902202715 | 95 | 333 | 1.7 | 5.2 | 0.00 | 0.00 | 0.00 | 49 | 1013.8 |
| 20260902201947 | 95 | 102 | 1.7 | 5.2 | 0.00 | 0.00 | 0.00 | 48 | 1013.8 |
| 20260902201448 | 95 | 189 | 1.7 | 5.2 | 0.00 | 0.00 | 0.00 | 51 | 1013.8 |
| 20260902200949 | 95 | 181 | 0.9 | 5.2 | 0.00 | 0.00 | 0.00 | 51 | 1013.8 |
| 20260902200448 | 95 | 243 | 1.7 | 5.2 | 0.00 | 0.00 | 0.00 | 50 | 1013.9 |
| 20260902200210 | 96 | 9 | 1.7 | 4.3 | 0.00 | 0.00 | 0.00 | 49 | 1013.9 |
| 20260902195449 | 95 | 172 | 1.7 | 5.2 | 0.00 | 0.00 | 0.00 | 49 | 1013.9 |
| 20260902194948 | 95 | 95 | 0.9 | 5.2 | 0.00 | 0.00 | 0.00 | 53 | 1014.0 |
| 20260902194449 | 95 | 79 | 1.7 | 6.1 | 0.00 | 0.00 | 0.00 | 52 | 1014.0 |
| 20260902193947 | 95 | 190 | 1.7 | 6.1 | 0.00 | 0.00 | 0.00 | 51 | 1014.1 |
| 20260902193449 | 96 | 204 | 1.7 | 6.1 | 0.00 | 0.00 | 0.00 | 50 | 1014.1 |
| 20260902192948 | 95 | 156 | 1.7 | 6.1 | 0.00 | 0.00 | 0.00 | 51 | 1014.2 |
| 20260902192447 | 95 | 242 | 1.7 | 6.1 | 0.00 | 0.00 | 0.00 | 51 | 1014.2 |
| 20260902191948 | 95 | 176 | 1.7 | 6.1 | 0.00 | 0.00 | 0.00 | 51 | 1014.3 |
| 20260902191709 | 95 | 297 | 1.7 | 5.2 | 0.00 | 0.00 | 0.00 | 50 | 1014.4 |
| 20260902190950 | 95 | 67 | 1.7 | 6.1 | 0.00 | 0.00 | 0.00 | 50 | 1014.4 |
| 20260902190450 | 95 | 104 | 1.7 | 6.1 | 0.00 | 0.00 | 0.00 | 50 | 1014.4 |
| 20260902185947 | 94 | 358 | 1.7 | 5.2 | 0.00 | 0.00 | 0.00 | 52 | 1014.4 |
| 20260902185446 | 94 | 45 | 1.7 | 5.2 | 0.00 | 0.00 | 0.00 | 54 | 1014.5 |
| 20260902184945 | 94 | 297 | 1.7 | 5.2 | 0.00 | 0.00 | 0.00 | 53 | 1014.6 |
| 20260902184443 | 94 | 133 | 1.7 | 3.5 | 0.00 | 0.00 | 0.00 | 53 | 1014.6 |
| 20260902183943 | 94 | 235 | 0.9 | 3.5 | 0.00 | 0.00 | 0.00 | 52 | 1014.7 |
| 20260902183444 | 95 | 66 | 1.7 | 3.5 | 0.00 | 0.00 | 0.00 | 52 | 1014.7 |
| 20260902182944 | 95 | 331 | 1.7 | 6.1 | 0.00 | 0.00 | 0.00 | 51 | 1014.7 |
| 20260902182444 | 96 | 162 | 1.7 | 6.1 | 0.00 | 0.00 | 0.00 | 51 | 1014.8 |
| 20260902181942 | 96 | 149 | 0.9 | 4.3 | 0.00 | 0.00 | 0.00 | 52 | 1014.8 |
| 20260902181710 | 96 | 92 | 0.9 | 3.5 | 0.00 | 0.00 | 0.00 | 51 | 1014.9 |
| 20260902181206 | 96 | 195 | 0.9 | 3.5 | 0.00 | 0.00 | 0.00 | 52 | 1014.9 |
| 20260902180444 | 96 | 71 | 0.9 | 3.5 | 0.00 | 0.00 | 0.00 | 52 | 1014.9 |
| 20260902175943 | 95 | 163 | 0.9 | 4.3 | 0.00 | 0.00 | 0.00 | 51 | 1014.9 |
| 20260902175445 | 96 | 0 | 0.9 | 5.2 | 0.00 | 0.00 | 0.00 | 51 | 1014.9 |
| 20260902174940 | 96 | 0 | 0.9 | 5.2 | 0.00 | 0.00 | 0.00 | 51 | 1015.0 |
| 20260902174440 | 96 | 316 | 0.9 | 2.6 | 0.00 | 0.00 | 0.00 | 48 | 1015.0 |
| 20260902173940 | 96 | 166 | 0.9 | 3.5 | 0.00 | 0.00 | 0.00 | 51 | 1015.1 |
| 20260902173439 | 96 | 349 | 1.7 | 3.5 | 0.00 | 0.00 | 0.00 | 49 | 1015.2 |
| 20260902172938 | 96 | 191 | 0.9 | 3.5 | 0.00 | 0.00 | 0.00 | 50 | 1015.3 |
| 20260902172440 | 96 | 249 | 0.9 | 4.3 | 0.00 | 0.00 | 0.00 | 46 | 1015.3 |
| 20260902171934 | 95 | 144 | 0.9 | 4.3 | 0.00 | 0.00 | 0.00 | 49 | 1015.4 |
| 20260902171433 | 95 | 224 | 0.9 | 3.5 | 0.00 | 0.00 | 0.00 | 53 | 1015.4 |
| 20260902170933 | 95 | 70 | 0.9 | 3.5 | 0.00 | 0.00 | 0.00 | 53 | 1015.5 |
| 20260902170433 | 95 | 175 | 0.9 | 3.5 | 0.00 | 0.00 | 0.00 | 53 | 1015.5 |
| 20260902165934 | 94 | 0 | 0.9 | 3.5 | 0.00 | 0.00 | 0.00 | 51 | 1015.5 |
| 20260902165651 | 94 | 303 | 0.9 | 3.5 | 0.00 | 0.00 | 0.00 | 53 | 1015.6 |
| 20260902164929 | 94 | 158 | 0.9 | 2.6 | 0.00 | 0.00 | 0.00 | 54 | 1015.6 |
| 20260902164430 | 93 | 56 | 0.9 | 3.5 | 0.00 | 0.00 | 0.00 | 54 | 1015.6 |
| 20260902163929 | 93 | 22 | 0.9 | 3.5 | 0.00 | 0.00 | 0.00 | 56 | 1015.6 |
| 20260902163429 | 92 | 141 | 0.9 | 3.5 | 0.00 | 0.00 | 0.00 | 59 | 1015.7 |
| 20260902162929 | 92 | 221 | 0.9 | 3.5 | 0.00 | 0.00 | 0.00 | 56 | 1015.8 |
| 20260902162429 | 92 | 161 | 0.9 | 3.5 | 0.00 | 0.00 | 0.00 | 58 | 1015.8 |
| 20260902161928 | 91 | 228 | 0.9 | 3.5 | 0.00 | 0.00 | 0.00 | 61 | 1015.8 |
| 20260902161427 | 91 | 0 | 0.9 | 3.5 | 0.00 | 0.00 | 0.00 | 59 | 1015.8 |
| 20260902160927 | 90 | 254 | 0.9 | 3.5 | 0.00 | 0.00 | 0.00 | 61 | 1015.9 |
| 20260902160655 | 90 | 297 | 0.9 | 3.5 | 0.00 | 0.00 | 0.00 | 63 | 1016.0 |
| 20260902155928 | 90 | 262 | 0.9 | 2.6 | 0.00 | 0.00 | 0.00 | 62 | 1016.1 |
| 20260902155428 | 89 | 225 | 0.9 | 4.3 | 0.00 | 0.00 | 0.00 | 63 | 1016.3 |
| 20260902154928 | 89 | 179 | 0.9 | 4.3 | 0.00 | 0.00 | 0.00 | 63 | 1016.3 |
| 20260902154425 | 89 | 240 | 0.9 | 4.3 | 0.00 | 0.00 | 0.00 | 63 | 1016.3 |
| 20260902153924 | 89 | 95 | 0.0 | 3.5 | 0.00 | 0.00 | 0.00 | 63 | 1016.4 |
| 20260902153423 | 89 | 233 | 0.0 | 1.7 | 0.00 | 0.00 | 0.00 | 63 | 1016.4 |
| 20260902152924 | 89 | 0 | 0.0 | 1.7 | 0.00 | 0.00 | 0.00 | 63 | 1016.4 |
| 20260902152643 | 90 | 67 | 0.9 | 1.7 | 0.00 | 0.00 | 0.00 | 62 | 1016.4 |
| 20260902151922 | 90 | 211 | 0.9 | 1.7 | 0.00 | 0.00 | 0.00 | 61 | 1016.4 |
| 20260902151423 | 90 | 0 | 0.0 | 1.7 | 0.00 | 0.00 | 0.00 | 61 | 1016.4 |
| 20260902151146 | 90 | 199 | 0.9 | 2.6 | 0.00 | 0.00 | 0.00 | 61 | 1016.3 |
| 20260902150420 | 90 | 310 | 0.9 | 2.6 | 0.00 | 0.00 | 0.00 | 62 | 1016.3 |
| 20260902150152 | 90 | 265 | 0.9 | 1.7 | 0.00 | 0.00 | 0.00 | 63 | 1016.1 |
| 20260902145416 | 90 | 29 | 0.0 | 1.7 | 0.00 | 0.00 | 0.00 | 62 | 1016.3 |
| 20260902144917 | 90 | 136 | 0.9 | 3.5 | 0.00 | 0.00 | 0.00 | 63 | 1016.1 |
| 20260902144417 | 89 | 207 | 0.9 | 3.5 | 0.00 | 0.00 | 0.00 | 64 | 1016.1 |
| 20260902143916 | 89 | 264 | 0.0 | 1.7 | 0.00 | 0.00 | 0.00 | 65 | 1016.1 |
| 20260902143410 | 88 | 251 | 0.9 | 3.5 | 0.00 | 0.00 | 0.00 | 67 | 1016.0 |
| 20260902143140 | 88 | 62 | 0.9 | 3.5 | 0.00 | 0.00 | 0.00 | 64 | 1015.9 |
| 20260902142411 | 88 | 215 | 0.9 | 1.7 | 0.00 | 0.00 | 0.00 | 66 | 1015.9 |
| 20260902141910 | 88 | 80 | 0.9 | 2.6 | 0.00 | 0.00 | 0.00 | 66 | 1015.9 |
| 20260902141411 | 87 | 220 | 0.9 | 2.6 | 0.00 | 0.00 | 0.00 | 68 | 1015.9 |
| 20260902140908 | 87 | 35 | 0.9 | 2.6 | 0.00 | 0.00 | 0.00 | 68 | 1015.9 |
| 20260902140407 | 87 | 0 | 0.9 | 3.5 | 0.00 | 0.00 | 0.00 | 69 | 1015.9 |
| 20260902135905 | 86 | 226 | 0.9 | 3.5 | 0.00 | 0.00 | 0.00 | 68 | 1015.9 |
| 20260902135406 | 86 | 144 | 0.9 | 3.5 | 0.00 | 0.00 | 0.00 | 69 | 1016.0 |
| 20260902134905 | 86 | 240 | 0.9 | 3.5 | 0.00 | 0.00 | 0.00 | 69 | 1015.9 |
| 20260902134406 | 85 | 90 | 0.9 | 5.2 | 0.00 | 0.00 | 0.00 | 70 | 1015.8 |
| 20260902133907 | 85 | 160 | 0.9 | 5.2 | 0.00 | 0.00 | 0.00 | 71 | 1015.8 |
| 20260902133406 | 85 | 241 | 0.9 | 3.5 | 0.00 | 0.00 | 0.00 | 71 | 1015.8 |
| 20260902132905 | 84 | 283 | 0.9 | 3.5 | 0.00 | 0.00 | 0.00 | 72 | 1015.8 |
| 20260902132406 | 84 | 6 | 0.9 | 3.5 | 0.00 | 0.00 | 0.00 | 73 | 1015.8 |
| 20260902132130 | 83 | 202 | 0.9 | 3.5 | 0.00 | 0.00 | 0.00 | 73 | 1015.7 |
| 20260902131405 | 83 | 240 | 0.9 | 3.5 | 0.00 | 0.00 | 0.00 | 73 | 1015.7 |
| 20260902131125 | 83 | 140 | 0.9 | 2.6 | 0.00 | 0.00 | 0.00 | 75 | 1015.8 |
| 20260902130406 | 82 | 223 | 0.9 | 3.5 | 0.00 | 0.00 | 0.00 | 76 | 1015.7 |
| 20260902130130 | 82 | 75 | 1.7 | 3.5 | 0.00 | 0.00 | 0.00 | 76 | 1015.8 |
| 20260902125405 | 82 | 257 | 0.9 | 3.5 | 0.00 | 0.00 | 0.00 | 76 | 1015.7 |
| 20260902124905 | 81 | 183 | 0.9 | 2.6 | 0.00 | 0.00 | 0.00 | 77 | 1015.7 |
| 20260902124405 | 81 | 216 | 0.9 | 2.6 | 0.00 | 0.00 | 0.00 | 77 | 1015.7 |
| 20260902123906 | 80 | 71 | 0.9 | 1.7 | 0.00 | 0.00 | 0.00 | 79 | 1015.7 |
| 20260902123403 | 80 | 290 | 0.9 | 2.6 | 0.00 | 0.00 | 0.00 | 80 | 1015.7 |
| 20260902122902 | 79 | 188 | 0.9 | 2.6 | 0.00 | 0.00 | 0.00 | 81 | 1015.8 |
| 20260902122403 | 78 | 228 | 0.9 | 4.3 | 0.00 | 0.00 | 0.00 | 82 | 1015.8 |
| 20260902122342 | 78 | 206 | 0.9 | 4.3 | 0.00 | 0.00 | 0.00 | 83 | 1015.8 |
| 20260902121621 | 78 | 211 | 0.9 | 3.5 | 0.00 | 0.00 | 0.00 | 83 | 1015.8 |
| 20260902120903 | 77 | 42 | 0.9 | 3.5 | 0.00 | 0.00 | 0.00 | 84 | 1015.9 |
| 20260902120401 | 77 | 201 | 0.9 | 2.6 | 0.00 | 0.00 | 0.00 | 85 | 1015.8 |
| 20260902115901 | 77 | 164 | 0.0 | 1.7 | 0.00 | 0.00 | 0.00 | 85 | 1015.7 |
| 20260902115359 | 77 | 231 | 0.9 | 2.6 | 0.00 | 0.00 | 0.00 | 85 | 1015.7 |
| 20260902114902 | 77 | 132 | 0.9 | 3.5 | 0.00 | 0.00 | 0.00 | 85 | 1015.6 |
| 20260902114400 | 77 | 161 | 0.9 | 3.5 | 0.00 | 0.00 | 0.00 | 85 | 1015.4 |
| 20260902113859 | 77 | 0 | 0.9 | 3.5 | 0.00 | 0.00 | 0.00 | 86 | 1015.4 |
| 20260902113623 | 77 | 200 | 0.9 | 3.5 | 0.00 | 0.00 | 0.00 | 86 | 1015.3 |
| 20260902112901 | 77 | 230 | 0.0 | 3.5 | 0.00 | 0.00 | 0.00 | 86 | 1015.3 |
| 20260902112400 | 77 | 43 | 0.9 | 2.6 | 0.00 | 0.00 | 0.00 | 86 | 1015.3 |
| 20260902111858 | 77 | 151 | 0.9 | 3.5 | 0.00 | 0.00 | 0.00 | 86 | 1015.2 |
| 20260902111615 | 77 | 188 | 0.9 | 3.5 | 0.00 | 0.00 | 0.00 | 86 | 1015.2 |
| 20260902110857 | 77 | 166 | 0.9 | 3.5 | 0.00 | 0.00 | 0.00 | 86 | 1015.1 |
| 20260902110357 | 77 | 0 | 0.9 | 3.5 | 0.00 | 0.00 | 0.00 | 86 | 1015.1 |
| 20260902105857 | 77 | 129 | 0.9 | 3.5 | 0.00 | 0.00 | 0.00 | 86 | 1015.1 |
| 20260902105358 | 77 | 140 | 0.9 | 3.5 | 0.00 | 0.00 | 0.00 | 86 | 1015.1 |
| 20260902104854 | 77 | 157 | 0.9 | 3.5 | 0.00 | 0.00 | 0.00 | 85 | 1015.1 |
| 20260902104620 | 77 | 221 | 0.9 | 3.5 | 0.00 | 0.00 | 0.00 | 85 | 1015.1 |
| 20260902103855 | 77 | 211 | 0.9 | 3.5 | 0.00 | 0.00 | 0.00 | 85 | 1015.1 |
| 20260902103356 | 77 | 176 | 0.9 | 2.6 | 0.00 | 0.00 | 0.00 | 85 | 1015.1 |
| 20260902102855 | 77 | 194 | 0.9 | 2.6 | 0.00 | 0.00 | 0.00 | 86 | 1015.0 |
| 20260902102355 | 77 | 123 | 0.9 | 2.6 | 0.00 | 0.00 | 0.00 | 86 | 1015.1 |
| 20260902102120 | 77 | 222 | 0.9 | 2.6 | 0.00 | 0.00 | 0.00 | 86 | 1015.1 |
| 20260902101355 | 77 | 0 | 0.9 | 2.6 | 0.00 | 0.00 | 0.00 | 86 | 1015.1 |
| 20260902100856 | 77 | 280 | 0.9 | 4.3 | 0.00 | 0.00 | 0.00 | 86 | 1015.1 |
| 20260902100355 | 76 | 212 | 0.9 | 4.3 | 0.00 | 0.00 | 0.00 | 86 | 1015.0 |
| 20260902095856 | 76 | 140 | 0.9 | 3.5 | 0.00 | 0.00 | 0.00 | 86 | 1015.0 |
| 20260902095356 | 76 | 163 | 0.9 | 3.5 | 0.00 | 0.00 | 0.00 | 86 | 1015.0 |
| 20260902094855 | 76 | 236 | 0.9 | 3.5 | 0.00 | 0.00 | 0.00 | 86 | 1015.1 |
| 20260902094615 | 76 | 174 | 0.9 | 5.2 | 0.00 | 0.00 | 0.00 | 86 | 1015.0 |
| 20260902093852 | 76 | 226 | 0.9 | 5.2 | 0.00 | 0.00 | 0.00 | 87 | 1015.0 |
| 20260902093352 | 76 | 154 | 0.9 | 3.5 | 0.00 | 0.00 | 0.00 | 87 | 1014.9 |
| 20260902092853 | 76 | 230 | 0.9 | 3.5 | 0.00 | 0.00 | 0.00 | 87 | 1015.1 |
| 20260902092353 | 77 | 233 | 0.9 | 2.6 | 0.00 | 0.00 | 0.00 | 86 | 1015.2 |
| 20260902092118 | 77 | 167 | 0.9 | 3.5 | 0.00 | 0.00 | 0.00 | 86 | 1015.2 |
| 20260902091608 | 77 | 124 | 0.9 | 3.5 | 0.00 | 0.00 | 0.00 | 86 | 1015.2 |
| 20260902090850 | 76 | 176 | 0.9 | 3.5 | 0.00 | 0.00 | 0.00 | 87 | 1015.2 |
| 20260902090610 | 76 | 185 | 0.9 | 3.5 | 0.00 | 0.00 | 0.00 | 87 | 1015.2 |